www.pogodaiklimat.ru

Погода и климат >> Архив погоды >> Австралия >> Западная Австралия >> Лавертон


ПОГОДА в Лавертоне

  • Прогноз погоды в Лавертоне
  • Монитор погоды в Лавертоне

АРХИВ ПОГОДЫ в Лавертоне

Время (UTC), дата Ветер
(напр.,м/с)
 
Видим.   Явления Облачность Т
(С)
Тd
(С)
f
(%)
Тe
(С)
Тes
(С)
Комфортность P
(гПа)
Po
(гПа)
Тmin
(С)
Tmax
(С)
R
(мм)
R24
(мм)
S
(см)
13 9.09 СВ 7 н/о н/о +25.5 -7.1 11 +23 +23 комфорт 1019.9 966.1 +32.5
15 9.09 СВ 8 н/о н/о +24.7 -6.6 12 +22 +22 комфорт 1019.6 965.9
16 9.09 СВ 7 н/о н/о +24.3 -5.8 13 +22 +22 комфорт 1019.4 965.7
18 9.09 С 6 н/о н/о +23.6 -5.4 14 +22 +22 комфорт 1018.8 965.1
19 9.09 С 7 н/о н/о +23.1 -5.8 14 +21 +21 комфорт 1018.4 964.7
21 9.09 С 6 н/о н/о +21.5 -5.3 16 +20 +20 1019.9 966.1
22 9.09 С 5 н/о н/о +19.9 -5.1 18 +20 +20 1020.5 966.7
00 10.09 С 9 н/о н/о +25.7 -6.9 11 +23 +23 комфорт 1021.4 967.6
01 10.09 С 8 н/о н/о +28.3 -7.6 9 +25 +25 комфорт 1021.7 967.8 +19.8
03 10.09 С 10 н/о н/о +32.3 -7.8 7 +28 +28 жарко 1020.9 967.1
04 10.09 СЗ 9 н/о н/о +34.0 -8.6 6 +30 +30 жарко 1020.1 966.3
06 10.09 СЗ 9 н/о н/о +34.2 -6.5 7 +30 +30 жарко 1018.5 964.8
07 10.09 СЗ 7 н/о н/о +33.7 -6.8 7 +29 +29 жарко 1018.4 964.7
09 10.09 СЗ 6 н/о н/о +32.8 -5.7 8 +29 +29 жарко 1018.7 965.0
10 10.09 С 4 н/о н/о +30.2 -6.1 9 +26 +26 жарко 1019.0 965.3
12 10.09 С 4 н/о н/о +27.6 -6.7 10 +24 +24 комфорт 1019.8 966.0
13 10.09 С 4 н/о н/о +26.0 -5.6 12 +23 +23 комфорт 1020.0 966.2 +35.1
15 10.09 С 5 н/о н/о +26.1 -6.6 11 +23 +23 комфорт 1019.6 965.9
16 10.09 С 5 н/о н/о +26.3 -7.7 10 +23 +23 комфорт 1019.6 965.9
18 10.09 С 6 н/о н/о +25.0 -7.5 11 +22 +22 комфорт 1019.2 965.5
19 10.09 С 4 н/о н/о +23.1 -7.8 12 +21 +21 комфорт 1019.9 966.1
21 10.09 С 3 н/о н/о +18.8 -6.0 18 +19 +19 1021.1 967.3
22 10.09 С 3 н/о н/о +17.3 -6.5 19 +17 +17 1022.3 968.4
00 11.09 С 6 н/о н/о +25.5 -8.3 10 +23 +23 комфорт 1023.6 969.6
01 11.09 СЗ 8 н/о н/о +29.3 -8.3 8 +26 +26 жарко 1023.6 969.6 +17.0
03 11.09 СЗ 8 н/о н/о +31.6 -8.3 7 +27 +27 жарко 1022.9 969.0
04 11.09 СЗ 7 н/о н/о +32.2 -9.9 6 +28 +28 жарко 1022.3 968.4
06 11.09 З 7 н/о н/о +33.3 -7.1 7 +29 +29 жарко 1020.7 966.9
07 11.09 З 7 н/о н/о +33.5 -5.2 8 +29 +29 жарко 1020.3 966.5
09 11.09 З 5 н/о н/о +32.2 +0.3 13 +29 +29 жарко 1020.7 966.9
10 11.09 ЮЗ 4 н/о н/о +29.8 +1.3 16 +27 +27 жарко 1021.3 967.5
12 11.09 Ю 3 н/о н/о +25.0 +1.2 21 +24 +24 комфорт 1023.0 969.1
13 11.09 Ю 3 н/о н/о +23.5 +1.8 24 +23 +23 комфорт 1023.2 969.3 +34.8
15 11.09 В 3 н/о н/о +20.9 +1.7 28 +22 +22 комфорт 1023.3 969.4
16 11.09 В 2 н/о н/о +19.7 +1.2 29 +21 +21 комфорт 1023.3 969.4
18 11.09 В 3 н/о н/о +19.3 +1.8 31 +20 +20 1023.1 969.2
19 11.09 ЮВ 3 н/о н/о +19.8 +3.1 33 +20 +20 1023.0 969.1
21 11.09 В 7 н/о н/о +20.9 +2.2 29 +21 +21 комфорт 1024.0 970.0
22 11.09 В 5 н/о н/о +19.1 +2.5 33 +19 +19 1024.5 970.5
00 12.09 В 6 н/о н/о +23.7 +3.6 27 +23 +23 комфорт 1025.0 971.0
01 12.09 СВ 5 н/о н/о +27.8 +2.1 19 +26 +26 жарко 1025.0 971.0 +18.9
03 12.09 С 4 н/о н/о +32.0 +0.2 13 +29 +29 жарко 1024.2 970.2
04 12.09 В 4 н/о н/о +33.4 +0.1 12 +30 +30 жарко 1023.2 969.3
06 12.09 В 3 н/о н/о +34.6 -4.4 8 +30 +30 жарко 1021.0 967.2
07 12.09 С 3 н/о н/о +33.8 -3.5 9 +30 +30 жарко 1020.7 966.9
09 12.09 СЗ 3 н/о н/о +33.4 -5.3 8 +29 +29 жарко 1020.8 967.0
10 12.09 З 2 н/о н/о +31.3 -5.3 9 +27 +27 жарко 1021.3 967.5
12 12.09 Ю 4 н/о н/о +27.6 +2.6 20 +26 +26 жарко 1023.0 969.1
13 12.09 В 2 н/о н/о +24.7 +2.2 23 +24 +24 комфорт 1023.2 969.3 +35.5
15 12.09 С 1 н/о н/о +23.0 +3.0 27 +23 +23 комфорт 1023.1 969.2
16 12.09 СВ 3 н/о н/о +21.2 +1.5 27 +21 +21 комфорт 1023.1 969.2
18 12.09 З 2 н/о н/о +18.5 +1.5 32 +19 +19 1022.4 968.5
19 12.09 штиль 0 н/о н/о +17.6 +0.7 32 +18 +18 1022.0 968.1
21 12.09 С 1 н/о н/о +16.8 +2.4 38 +18 +18 1022.3 968.4
22 12.09 В 2 н/о н/о +15.4 +1.5 39 +16 +16 1023.0 969.1
00 13.09 СЗ 3 н/о н/о +27.3 -8.3 9 +24 +24 комфорт 1024.1 970.1
01 13.09 СЗ 5 н/о н/о +31.3 -12.8 5 +27 +27 жарко 1024.1 970.1 +15.2
03 13.09 СЗ 7 н/о н/о +34.6 -13.2 4 +30 +30 жарко 1022.9 969.0
04 13.09 С 6 н/о н/о +34.8 -13.1 4 +30 +30 жарко 1022.1 968.2
06 13.09 С 4 н/о н/о +34.9 -13.0 4 +30 +30 жарко 1020.4 966.6
07 13.09 СВ 4 н/о н/о +35.2 -12.8 4 +30 +30 жарко 1020.0 966.2
09 13.09 С 5 н/о н/о +33.8 -13.8 4 +29 +29 жарко 1020.3 966.5
10 13.09 С 4 н/о н/о +30.9 -13.1 5 +26 +26 жарко 1020.7 966.9
12 13.09 СВ 4 н/о н/о +26.5 -12.1 7 +23 +23 комфорт 1022.2 968.3
13 13.09 С 4 н/о н/о +26.0 -12.4 7 +23 +23 комфорт 1022.2 968.3 +36.2
15 13.09 С 2 н/о н/о +20.9 -11.8 10 +21 +21 комфорт 1021.8 967.9
16 13.09 С 3 н/о н/о +22.3 -12.1 9 +20 +20 1021.5 967.7
18 13.09 С 4 н/о н/о +21.5 -12.7 9 +20 +20 1020.6 966.8
19 13.09 С 4 н/о н/о +21.3 -11.5 10 +20 +20 1020.4 966.6
21 13.09 СЗ 2 н/о н/о +18.0 -10.8 13 +19 +19 1021.1 967.3
22 13.09 С 3 н/о н/о +16.3 -10.3 15 +16 +16 1021.7 967.8
00 14.09 СЗ 5 н/о н/о +27.3 -15.6 5 +23 +23 комфорт 1022.6 968.7
01 14.09 СЗ 5 н/о н/о +30.2 -16.2 4 +26 +26 жарко 1022.6 968.7 +16.4
03 14.09 С 5 н/о н/о +34.0 -13.7 4 +29 +29 жарко 1021.4 967.6
04 14.09 С 7 н/о н/о +34.0 -13.7 4 +29 +29 жарко 1020.5 966.7
06 14.09 СЗ 7 н/о н/о +35.2 -12.8 4 +30 +30 жарко 1018.6 964.9
07 14.09 С 5 н/о н/о +34.4 -16.9 3 +30 +30 жарко 1018.2 964.5
09 14.09 СЗ 5 н/о н/о +33.6 -13.9 4 +29 +29 жарко 1018.0 964.3
10 14.09 С 3 н/о н/о +30.2 -13.6 5 +26 +26 жарко 1018.3 964.6
12 14.09 С 4 н/о н/о +24.8 -13.3 7 +22 +22 комфорт 1019.5 965.8
13 14.09 С 4 н/о н/о +23.2 -14.5 7 +20 +20 1019.5 965.8 +36.2
15 14.09 С 3 н/о н/о +20.2 -15.1 8 +20 +20 1018.8 965.1
16 14.09 С 4 н/о н/о +21.3 -15.9 7 +20 +20 1018.5 964.8
18 14.09 С 3 н/о н/о +18.9 -16.0 8 +19 +19 1017.7 964.1
19 14.09 С 3 н/о н/о +18.5 -16.3 8 +19 +19 1017.6 964.0
21 14.09 СВ 3 н/о н/о +14.2 -15.8 11 +14 +14 1018.5 964.8
22 14.09 СЗ 2 н/о н/о +13.8 -15.1 12 +14 +14 1018.9 965.2
00 15.09 С 1 н/о н/о +23.7 -18.1 5 +21 +21 комфорт 1019.9 966.1
01 15.09 СЗ 2 н/о н/о +27.0 -15.8 5 +23 +23 комфорт 1019.8 966.0 +13.1
03 15.09 ЮЗ 6 н/о н/о +32.4 -14.7 4 +28 +28 жарко 1018.8 965.1
04 15.09 З 6 н/о н/о +32.5 -14.7 4 +28 +28 жарко 1018.2 964.5
06 15.09 С 4 н/о н/о +33.9 -21.9 2 +29 +29 жарко 1016.5 962.9
07 15.09 СЗ 6 н/о н/о +34.3 -21.6 2 +29 +29 жарко 1016.2 962.6
09 15.09 СЗ 4 н/о н/о +32.5 -22.8 2 +28 +28 жарко 1016.4 962.8
10 15.09 СЗ 3 н/о н/о +29.0 -20.4 3 +24 +24 комфорт 1016.7 963.1
12 15.09 ЮВ 7 н/о н/о +26.1 +2.7 22 +25 +25 комфорт 1018.0 964.3
13 15.09 В 8 н/о н/о +25.1 +6.3 30 +25 +25 комфорт 1018.3 964.6 +35.0
15 15.09 В 10 н/о н/о +21.1 +10.3 50 +23 +23 комфорт 1018.7 965.0
16 15.09 В 9 н/о н/о +19.2 +9.9 55 +19 +19 1019.1 965.4
18 15.09 В 8 н/о н/о +15.6 +8.4 62 +14 +14 1020.0 966.2
19 15.09 В 9 н/о н/о +14.3 +8.0 66 +12 +12 1020.4 966.6
21 15.09 В 8 н/о н/о +12.7 +7.4 70 +10 +10 1021.5 967.7
22 15.09 В 8 н/о н/о +12.1 +7.6 74 +9 +9 1022.2 968.3
00 16.09 В 9 н/о н/о +15.5 +7.5 59 +13 +13 1023.1 969.2
01 16.09 В 9 н/о н/о +17.1 +7.5 53 +16 +16 1023.1 969.2 +12.2
03 16.09 В 8 н/о н/о +21.2 +7.1 40 +22 +22 комфорт 1021.8 967.9
04 16.09 СВ 7 н/о н/о +23.6 +6.8 34 +24 +24 комфорт 1020.9 967.1
06 16.09 В 6 н/о н/о +25.7 +5.3 27 +25 +25 комфорт 1018.9 965.2
07 16.09 В 6 н/о н/о +25.8 +5.4 27 +25 +25 комфорт 1018.4 964.7
09 16.09 В 6 н/о н/о +25.6 +4.7 26 +25 +25 комфорт 1018.1 964.4
10 16.09 В 6 н/о н/о +24.2 +4.6 28 +24 +24 комфорт 1018.5 964.8

 

Местоположение метеостанции Лавертон (Западная Австралия, Австралия): широта -28.61 долгота 122.41 высота над уровнем моря 465 м.

В архиве по умолчанию представлена погода в Лавертоне за последнюю неделю. Архивные данные за месяц целиком и за предыдущие месяцы, начиная с января 2011 года, Вы можете получить, выбрав интересующий диапазон дат из раскрывающегося списка и нажав кнопку "Ввод!".


*Определитесь, кто Вы:
робот инопланетянин человек

Внимание! Время в таблицах - всемирное. Для получения местного времени необходимо прибавить поправку, которая равна 8 ч.

Смотрите также архив погоды в соседних городах и на ближайших метеорологических станциях:

Погода в Леонора аэропорту (Западная Австралия, Австралия) (110 км)
Погода в Леинстере (Западная Австралия, Австралия) (188 км)
Погода в Калгурли-Боулдере (Западная Австралия, Австралия) (259 км)
Погода в Норсмане (Западная Австралия, Австралия) (406 км)
Погода в Саутерн Кросс (Западная Австралия, Австралия) (415 км)
Погода в Микатарре (Западная Австралия, Австралия) (441 км)
Погода в Маунт Магнет аэропорту (Западная Австралия, Австралия) (452 км)
Погода в Салмон Гамс (Западная Австралия, Австралия) (492 км)
Погода в Уорбертоне (Западная Австралия, Австралия) (496 км)
Погода в Эсперансе (Западная Австралия, Австралия) (567 км)

Пояснения к столбцам:

Ветер - указаны скорость ветра в м/с - средняя за 10 мин, порывы в срок и между сроками (в фигурных скобках) и направление, откуда дует ветер: С - северный, СВ - северо-восточный, В - восточный, ЮВ - юго-восточный, Ю - южный, ЮЗ - юго-западный, З - западный, СЗ - северо-западный.
Видимость - горизонтальная дальность видимости в метрах или километрах. При видимости от 1 до 10 км при отсутствии осадков обычно наблюдается дымка, при ухудшении видимости до 1 км и менее - туман. В сухую погоду видимость может ухудшаться дымом, пылью или мглою.
Явления - указаны атмосферные явления, наблюдавшиеся в срок или в последний час перед сроком; фигурными скобками обозначены явления, наблюдавшиеся между сроками (за 1-3 часа до срока); квадратными скобками обозначены град или гололедные отложения с указанием их диаметра в мм.
Облачность - указаны через наклонную черту общая и нижняя облачность в баллах и высота нижней границы облаков в метрах; квадратными скобками обозначены формы облаков: Ci - перистые, Cs - перисто-слоистые, Cc - перисто-кучевые, Ac - высококучевые, As - высокослоистые, Sc - слоисто-кучевые, Ns - слоисто-дождевые, Cu - кучевые, Cb - кучево-дождевые. Подробнее классификацию облаков см. в Атласе облаков (PDF).
T - Температура воздуха - температура, измеренная на высоте 2 м над землей.
Td - Температура точки росы - температура, при понижении до которой содержащийся в воздухе водяной пар достигнет насыщения.
f - Относительная влажность воздуха - влажноcть воздуха, измеренная на высоте 2 м над землей.
Te - Эффективная температура - температура, которую ощущает одетый по сезону человек в тени. Характеристика душности погоды. При расчете учитывается влияние влажности воздуха и скорости ветра на теплоощущения человека.
Tes - Эффективная температура на солнце - температура, которую ощущает человек, с поправкой на солнечный нагрев. Характеристика знойности погоды. Зависит от высоты солнца над горизонтом, облачности и скорости ветра. Ночью, в пасмурную погоду, а также при ветре 12 м/с и более поправка равна нулю.
P - Атмосферное давление - приведенное к уровню моря атмосферное давление.
Po - Атмосферное давление - измеренное на уровне метеостанции атмосферное давление.
Tmin - Минимальная температура - минимум температуры воздуха на высоте 2 м над землей.
Tmax - Максимальная температура - максимум температуры воздуха на высоте 2 м над землей.
R - Количество осадков - Количество выпавших осадков за период времени, мм. При наведении курсора мыши на число - период времени, за который выпало указанное количество осадков.
R24 - Количество осадков - Количество выпавших осадков за 24 часа, мм.
S - Снежный покров - Высота снежного покрова, см. При наведении курсора мыши на число - состояние снежного покрова и степень покрытия местности в баллах.